Location: ShareBrained
(45.5589°N, 122.6491°W)
Time: 13:37:31
(UTC-08:00)

NOAA 19 - Pass Details

Date: 21 January 2020
Orbit: 840 x 862 km, 99.2° (Epoch: 24 February)

Event Time Altitude Azimuth Distance (km) Brightness Sun altitude
Rises 18:33:09 0° 214° (SW) 3,413 9.1 -15.9°
Reaches altitude 10° 18:36:40 10° 237° (WSW) 2,479 8.7 -16.5°
Maximum altitude 18:39:40 15° 271° (W) 2,156 8.4 -17.0°
Drops below altitude 10° 18:42:41 10° 305° (NW) 2,481 8.3 -17.6°
Sets 18:46:13 0° 328° (NNW) 3,419 8.7 -18.2°
